Tracking 19638 objects as of 20-Apr-2019
HD Live streaming from Space Station
objects crossing your sky now

THORAD AGENA D DEB

Track THORAD AGENA D DEB now!
10-day predictions


NORAD ID: 4946
Int'l Code: 1970-025GG
Perigee: 970.0 km
Apogee: 988.9 km
Inclination: 99.7 °
Period: 104.5 minutes
Semi major axis: 7350 km
RCS: 0.0081 m2 (small)
Launch date: April 8, 1970
Source: United States (US)
Launch site: AIR FORCE WESTERN TEST RANGE (AFWTR)

Note: This is SATELLITE DEBRIS
aabbcc
Your satellite tracking list
Your tracking list is empty




NASA's NSSDC Master Catalog

Two Line Element Set (TLE):
1  4946U 70025GG  19109.08264209  .00000213  00000-0  26069-3 0  9990
2  4946  99.7309 140.2219 0012843 325.5694  99.9367 13.77635459442714
Source of the keplerian elements: AFSPC